Back to catalog

PSLV DEB

AlivePO
NORAD 27582·DEBRIS·🇮🇳 India

Launched Oct 22, 2001 from Satish Dhawan Space Centre

Loading…

Next Passes (next 24 hours)

TLE

FreshSource: Space-Track

Epoch: Sep 11, 2026, 11:03 UTC

1 27582U 01049NA  26254.46054764  .00006637  00000-0  39034-3 0  9997
2 27582  98.2985 333.9027 0025742  87.9166 272.5009 15.11768871305942

Track PSLV DEB in real time with AllMySat

Download on the App Store